Time,TemperatureF,DewpointF,PressureIn,WindDirection,WindDirectionDegrees,WindSpeedMPH,WindSpeedGustMPH,Humidity,HourlyPrecipIn,Conditions,Clouds,dailyrainin,SolarRadiationWatts/m^2,SoftwareType,DateUTC
2013-02-12 00:08:00,34.4,30.0,29.89,North,9,3.0,-999.0,85,-99.99,,,0.00,0,weatherlink.com 1.10,2013-02-12 00:08:00,
2013-02-12 00:23:00,34.4,30.0,29.89,NNE,20,5.0,-999.0,85,-99.99,,,0.00,0,weatherlink.com 1.10,2013-02-12 00:23:00,
2013-02-12 00:38:00,34.3,31.0,29.89,NE,34,4.0,-999.0,86,-99.99,,,0.00,0,weatherlink.com 1.10,2013-02-12 00:38:00,
2013-02-12 00:53:00,34.2,31.0,29.89,North,360,5.0,-999.0,86,-99.99,,,0.00,0,weatherlink.com 1.10,2013-02-12 00:53:00,
2013-02-12 01:08:00,34.1,30.0,29.89,NNE,30,5.0,-999.0,86,-99.99,,,0.00,0,weatherlink.com 1.10,2013-02-12 01:08:00,
2013-02-12 01:23:00,33.9,30.0,29.90,NNE,26,6.0,-999.0,86,-99.99,,,0.00,0,weatherlink.com 1.10,2013-02-12 01:23:00,
2013-02-12 01:38:00,33.9,30.0,29.90,North,9,2.0,-999.0,86,-99.99,,,0.00,0,weatherlink.com 1.10,2013-02-12 01:38:00,
2013-02-12 01:53:00,33.8,30.0,29.91,NNE,14,5.0,-999.0,86,-99.99,,,0.00,0,weatherlink.com 1.10,2013-02-12 01:53:00,
2013-02-12 02:08:00,33.8,30.0,29.91,NE,40,4.0,-999.0,86,-99.99,,,0.00,0,weatherlink.com 1.10,2013-02-12 02:08:00,
2013-02-12 02:23:00,33.8,30.0,29.91,NNE,24,1.0,-999.0,86,-99.99,,,0.00,0,weatherlink.com 1.10,2013-02-12 02:23:00,
2013-02-12 02:38:00,33.8,30.0,29.91,NE,38,5.0,-999.0,86,-99.99,,,0.00,0,weatherlink.com 1.10,2013-02-12 02:38:00,
2013-02-12 02:53:00,33.8,30.0,29.91,NNE,30,3.0,-999.0,86,-99.99,,,0.00,0,weatherlink.com 1.10,2013-02-12 02:53:00,
2013-02-12 03:08:00,33.8,30.0,29.92,NNE,32,3.0,-999.0,86,-99.99,,,0.00,0,weatherlink.com 1.10,2013-02-12 03:08:00,
2013-02-12 03:23:00,33.7,30.0,29.92,NE,46,1.0,-999.0,87,-99.99,,,0.00,0,weatherlink.com 1.10,2013-02-12 03:23:00,
2013-02-12 03:38:00,33.6,30.0,29.93,NNE,19,2.0,-999.0,87,-99.99,,,0.00,0,weatherlink.com 1.10,2013-02-12 03:38:00,
2013-02-12 03:54:00,33.6,30.0,29.92,ENE,72,5.0,-999.0,87,-99.99,,,0.00,0,weatherlink.com 1.10,2013-02-12 03:54:00,
2013-02-12 04:09:00,33.6,30.0,29.92,NNE,21,4.0,-999.0,87,-99.99,,,0.00,0,weatherlink.com 1.10,2013-02-12 04:09:00,
2013-02-12 04:24:00,33.6,30.0,29.93,NE,40,2.0,-999.0,87,-99.99,,,0.00,0,weatherlink.com 1.10,2013-02-12 04:24:00,
2013-02-12 04:38:00,33.5,30.0,29.93,NE,35,1.0,-999.0,88,-99.99,,,0.00,0,weatherlink.com 1.10,2013-02-12 04:38:00,
2013-02-12 04:53:00,33.5,30.0,29.93,NNE,22,2.0,-999.0,88,-99.99,,,0.00,0,weatherlink.com 1.10,2013-02-12 04:53:00,
2013-02-12 05:08:00,33.5,30.0,29.94,NNE,25,0.0,-999.0,88,-99.99,,,0.00,0,weatherlink.com 1.10,2013-02-12 05:08:00,
2013-02-12 05:23:00,33.5,30.0,29.94,ENE,59,3.0,-999.0,88,-99.99,,,0.00,0,weatherlink.com 1.10,2013-02-12 05:23:00,
2013-02-12 05:38:00,33.6,30.0,29.94,NNE,33,0.0,-999.0,88,-99.99,,,0.00,0,weatherlink.com 1.10,2013-02-12 05:38:00,
2013-02-12 05:54:00,33.7,31.0,29.95,NE,45,3.0,-999.0,88,-99.99,,,0.00,0,weatherlink.com 1.10,2013-02-12 05:54:00,
2013-02-12 06:09:00,33.8,30.0,29.95,NE,48,2.0,-999.0,87,-99.99,,,0.00,0,weatherlink.com 1.10,2013-02-12 06:09:00,
2013-02-12 06:23:00,33.8,30.0,29.95,NE,38,2.0,-999.0,87,-99.99,,,0.00,0,weatherlink.com 1.10,2013-02-12 06:23:00,
2013-02-12 06:38:00,33.7,30.0,29.95,NNE,32,4.0,-999.0,87,-99.99,,,0.00,0,weatherlink.com 1.10,2013-02-12 06:38:00,
2013-02-12 06:53:00,33.6,30.0,29.95,NNE,30,3.0,-999.0,88,-99.99,,,0.00,0,weatherlink.com 1.10,2013-02-12 06:53:00,
2013-02-12 07:09:00,33.6,30.0,29.96,ENE,61,4.0,-999.0,87,-99.99,,,0.00,0,weatherlink.com 1.10,2013-02-12 07:09:00,
2013-02-12 07:24:00,33.4,30.0,29.97,NE,55,1.0,-999.0,87,-99.99,,,0.00,0,weatherlink.com 1.10,2013-02-12 07:24:00,
2013-02-12 07:39:00,33.2,30.0,29.97,ENE,67,0.0,-999.0,87,-99.99,,,0.00,0,weatherlink.com 1.10,2013-02-12 07:39:00,
2013-02-12 07:54:00,33.0,30.0,29.97,NE,53,3.0,-999.0,88,-99.99,,,0.00,7,weatherlink.com 1.10,2013-02-12 07:54:00,
2013-02-12 08:09:00,32.8,30.0,29.98,NE,40,1.0,-999.0,88,-99.99,,,0.00,21,weatherlink.com 1.10,2013-02-12 08:09:00,
2013-02-12 08:24:00,32.8,30.0,29.98,NE,53,3.0,-999.0,89,-99.99,,,0.00,39,weatherlink.com 1.10,2013-02-12 08:24:00,
2013-02-12 08:39:00,33.2,30.0,29.98,NE,55,3.0,-999.0,89,-99.99,,,0.00,39,weatherlink.com 1.10,2013-02-12 08:39:00,
2013-02-12 08:54:00,33.6,30.0,29.98,ENE,66,3.0,-999.0,88,-99.99,,,0.00,46,weatherlink.com 1.10,2013-02-12 08:54:00,
2013-02-12 09:09:00,34.0,31.0,29.98,ENE,63,1.0,-999.0,88,-99.99,,,0.00,51,weatherlink.com 1.10,2013-02-12 09:09:00,
2013-02-12 09:24:00,34.2,31.0,29.98,ENE,67,2.0,-999.0,88,-99.99,,,0.00,69,weatherlink.com 1.10,2013-02-12 09:24:00,
2013-02-12 09:39:00,34.6,31.0,30.00,ENE,59,2.0,-999.0,87,-99.99,,,0.00,60,weatherlink.com 1.10,2013-02-12 09:39:00,
2013-02-12 09:54:00,35.0,32.0,30.01,NE,54,3.0,-999.0,87,-99.99,,,0.00,67,weatherlink.com 1.10,2013-02-12 09:54:00,
2013-02-12 10:09:00,35.4,32.0,30.01,ENE,58,1.0,-999.0,86,-99.99,,,0.00,84,weatherlink.com 1.10,2013-02-12 10:09:00,
2013-02-12 10:24:00,35.9,32.0,30.01,ENE,69,0.0,-999.0,85,-99.99,,,0.00,104,weatherlink.com 1.10,2013-02-12 10:24:00,
2013-02-12 10:39:00,36.4,32.0,30.01,East,94,0.0,-999.0,84,-99.99,,,0.00,116,weatherlink.com 1.10,2013-02-12 10:39:00,
2013-02-12 10:54:00,37.1,32.0,30.00,ENE,76,2.0,-999.0,83,-99.99,,,0.00,128,weatherlink.com 1.10,2013-02-12 10:54:00,
2013-02-12 11:09:00,37.6,33.0,29.99,East,98,5.0,-999.0,82,-99.99,,,0.00,165,weatherlink.com 1.10,2013-02-12 11:09:00,
2013-02-12 11:24:00,38.0,32.0,30.00,East,85,2.0,-999.0,80,-99.99,,,0.00,155,weatherlink.com 1.10,2013-02-12 11:24:00,
2013-02-12 11:39:00,37.9,32.0,30.00,East,88,4.0,-999.0,79,-99.99,,,0.00,130,weatherlink.com 1.10,2013-02-12 11:39:00,
2013-02-12 11:54:00,37.9,32.0,30.00,ENE,78,3.0,-999.0,79,-99.99,,,0.00,142,weatherlink.com 1.10,2013-02-12 11:54:00,
2013-02-12 12:09:00,38.1,32.0,30.00,East,82,3.0,-999.0,80,-99.99,,,0.00,137,weatherlink.com 1.10,2013-02-12 12:09:00,
2013-02-12 12:25:00,38.2,32.0,30.00,ESE,103,4.0,-999.0,79,-99.99,,,0.00,132,weatherlink.com 1.10,2013-02-12 12:25:00,
2013-02-12 12:40:00,38.5,33.0,30.00,East,86,4.0,-999.0,79,-99.99,,,0.00,181,weatherlink.com 1.10,2013-02-12 12:40:00,
2013-02-12 12:54:00,38.8,32.0,30.00,SE,128,6.0,-999.0,77,-99.99,,,0.00,158,weatherlink.com 1.10,2013-02-12 12:54:00,
2013-02-12 13:09:00,39.0,32.0,30.00,SSE,155,10.0,-999.0,75,-99.99,,,0.00,178,weatherlink.com 1.10,2013-02-12 13:09:00,
2013-02-12 13:25:00,38.9,32.0,30.00,East,100,6.0,-999.0,75,-99.99,,,0.00,100,weatherlink.com 1.10,2013-02-12 13:25:00,
2013-02-12 13:39:00,38.6,31.0,30.00,ESE,122,6.0,-999.0,74,-99.99,,,0.00,118,weatherlink.com 1.10,2013-02-12 13:39:00,
2013-02-12 13:55:00,39.2,32.0,30.00,SE,140,4.0,-999.0,75,-99.99,,,0.00,195,weatherlink.com 1.10,2013-02-12 13:55:00,
2013-02-12 14:09:00,39.4,32.0,30.00,SE,134,4.0,-999.0,74,-99.99,,,0.00,160,weatherlink.com 1.10,2013-02-12 14:09:00,
2013-02-12 14:25:00,39.3,31.0,30.00,ESE,116,5.0,-999.0,73,-99.99,,,0.00,83,weatherlink.com 1.10,2013-02-12 14:25:00,
2013-02-12 14:39:00,39.1,31.0,30.00,ESE,112,4.0,-999.0,74,-99.99,,,0.00,63,weatherlink.com 1.10,2013-02-12 14:39:00,
2013-02-12 14:54:00,38.9,32.0,30.00,SE,126,4.0,-999.0,75,-99.99,,,0.00,79,weatherlink.com 1.10,2013-02-12 14:54:00,
2013-02-12 15:09:00,38.8,32.0,30.00,SE,145,2.0,-999.0,75,-99.99,,,0.00,77,weatherlink.com 1.10,2013-02-12 15:09:00,
2013-02-12 15:25:00,38.7,31.0,30.00,ESE,115,4.0,-999.0,75,-99.99,,,0.00,67,weatherlink.com 1.10,2013-02-12 15:25:00,
2013-02-12 15:40:00,38.7,31.0,30.01,SE,127,0.0,-999.0,74,-99.99,,,0.00,25,weatherlink.com 1.10,2013-02-12 15:40:00,
2013-02-12 15:55:00,38.5,31.0,30.01,East,101,2.0,-999.0,75,-99.99,,,0.00,46,weatherlink.com 1.10,2013-02-12 15:55:00,
2013-02-12 16:10:00,38.5,31.0,30.01,SE,132,2.0,-999.0,75,-99.99,,,0.00,32,weatherlink.com 1.10,2013-02-12 16:10:00,
2013-02-12 16:25:00,38.4,31.0,30.01,SE,139,0.0,-999.0,76,-99.99,,,0.00,37,weatherlink.com 1.10,2013-02-12 16:25:00,
2013-02-12 16:40:00,38.2,31.0,30.00,ESE,116,1.0,-999.0,76,-99.99,,,0.00,14,weatherlink.com 1.10,2013-02-12 16:40:00,
2013-02-12 16:55:00,38.0,31.0,30.00,ESE,116,2.0,-999.0,76,-99.99,,,0.00,7,weatherlink.com 1.10,2013-02-12 16:55:00,
2013-02-12 17:10:00,37.8,31.0,30.00,East,96,0.0,-999.0,77,-99.99,,,0.00,0,weatherlink.com 1.10,2013-02-12 17:10:00,
2013-02-12 17:25:00,37.5,31.0,30.00,SE,140,1.0,-999.0,77,-99.99,,,0.00,0,weatherlink.com 1.10,2013-02-12 17:25:00,
2013-02-12 17:40:00,37.3,31.0,30.01,SE,139,0.0,-999.0,78,-99.99,,,0.00,0,weatherlink.com 1.10,2013-02-12 17:40:00,
2013-02-12 17:55:00,37.0,31.0,30.01,SE,139,0.0,-999.0,79,-99.99,,,0.00,0,weatherlink.com 1.10,2013-02-12 17:55:00,
2013-02-12 18:10:00,37.0,31.0,30.01,SE,139,0.0,-999.0,79,-99.99,,,0.00,0,weatherlink.com 1.10,2013-02-12 18:10:00,
2013-02-12 18:25:00,36.8,31.0,30.01,SE,132,0.0,-999.0,80,-99.99,,,0.00,0,weatherlink.com 1.10,2013-02-12 18:25:00,
2013-02-12 18:40:00,36.7,31.0,30.01,SE,130,0.0,-999.0,80,-99.99,,,0.00,0,weatherlink.com 1.10,2013-02-12 18:40:00,
2013-02-12 18:55:00,36.3,31.0,30.00,East,90,1.0,-999.0,81,-99.99,,,0.00,0,weatherlink.com 1.10,2013-02-12 18:55:00,
2013-02-12 19:10:00,35.8,31.0,30.01,East,90,0.0,-999.0,83,-99.99,,,0.00,0,weatherlink.com 1.10,2013-02-12 19:10:00,
2013-02-12 19:25:00,35.4,31.0,30.01,East,90,0.0,-999.0,84,-99.99,,,0.00,0,weatherlink.com 1.10,2013-02-12 19:25:00,
2013-02-12 19:40:00,35.2,31.0,30.02,East,90,0.0,-999.0,84,-99.99,,,0.00,0,weatherlink.com 1.10,2013-02-12 19:40:00,
2013-02-12 19:55:00,35.0,31.0,30.02,East,90,0.0,-999.0,85,-99.99,,,0.00,0,weatherlink.com 1.10,2013-02-12 19:55:00,
2013-02-12 20:10:00,35.1,31.0,30.02,East,90,0.0,-999.0,85,-99.99,,,0.00,0,weatherlink.com 1.10,2013-02-12 20:10:00,
2013-02-12 20:25:00,35.2,31.0,30.02,East,91,1.0,-999.0,85,-99.99,,,0.00,0,weatherlink.com 1.10,2013-02-12 20:25:00,
2013-02-12 20:55:00,35.3,31.0,30.02,East,97,6.0,-999.0,85,-99.99,,,0.00,0,weatherlink.com 1.10,2013-02-12 20:55:00,
2013-02-12 21:10:00,35.3,31.0,30.01,East,80,1.0,-999.0,85,-99.99,,,0.00,0,weatherlink.com 1.10,2013-02-12 21:10:00,
2013-02-12 21:25:00,35.0,31.0,30.01,ENE,73,1.0,-999.0,86,-99.99,,,0.00,0,weatherlink.com 1.10,2013-02-12 21:25:00,
2013-02-12 21:40:00,34.9,31.0,30.02,ESE,104,2.0,-999.0,86,-99.99,,,0.00,0,weatherlink.com 1.10,2013-02-12 21:40:00,
2013-02-12 21:55:00,34.9,31.0,30.01,ESE,103,2.0,-999.0,86,-99.99,,,0.00,0,weatherlink.com 1.10,2013-02-12 21:55:00,
2013-02-12 22:10:00,35.0,31.0,30.00,East,94,2.0,-999.0,86,-99.99,,,0.00,0,weatherlink.com 1.10,2013-02-12 22:10:00,
2013-02-12 22:25:00,35.0,31.0,30.00,East,92,2.0,-999.0,86,-99.99,,,0.00,0,weatherlink.com 1.10,2013-02-12 22:25:00,
2013-02-12 22:40:00,35.1,31.0,30.01,East,87,4.0,-999.0,86,-99.99,,,0.00,0,weatherlink.com 1.10,2013-02-12 22:40:00,
2013-02-12 22:55:00,35.0,31.0,30.02,East,92,2.0,-999.0,86,-99.99,,,0.00,0,weatherlink.com 1.10,2013-02-12 22:55:00,
2013-02-12 23:10:00,35.0,31.0,30.00,ESE,107,2.0,-999.0,86,-99.99,,,0.00,0,weatherlink.com 1.10,2013-02-12 23:10:00,
2013-02-12 23:25:00,34.9,31.0,30.00,ESE,109,2.0,-999.0,85,-99.99,,,0.00,0,weatherlink.com 1.10,2013-02-12 23:25:00,
2013-02-12 23:40:00,35.0,30.0,30.00,ESE,103,1.0,-999.0,83,-99.99,,,0.00,0,weatherlink.com 1.10,2013-02-12 23:40:00,
2013-02-12 23:55:00,34.9,30.0,29.99,ESE,109,2.0,-999.0,83,-99.99,,,0.00,0,weatherlink.com 1.10,2013-02-12 23:55:00,